QPF
0.00 0.00 0.01 0.01 0.01 0.01 0.01 0.00 0.01 0.01 0.01 0.00 0.01 0.01 0.01 0.00 0.00 0.00 0.00 0.00 0.00 0.00 0.00 0.00 0.00 0.00 0.00 0.01 0.01 0.01 0.01 0.01 0.01 0.01 0.01 0.01 0.01 0.01 0.02 0.02 0.02 0.02 0.02 0.01
0.01 0.01 0.01 0.02 0.02 0.02 0.01 0.00 0.00 0.01 0.01 0.01 0.01 0.01 0.01 0.00 0.00 0.00 0.00 0.00 0.00 0.00 0.00 0.00 0.00 0.00 0.00 0.01 0.01 0.01 0.01 0.01 0.01 0.01 0.01 0.01 0.01 0.01 0.01 0.01 0.01 0.01 0.01 0.01
0.02 0.01 0.01 0.02 0.02 0.02 0.02 0.01 0.01 0.01 0.01 0.01 0.01 0.01 0.01 0.00 0.00 0.00 0.00 0.00 0.00 0.00 0.00 0.00 0.00 0.00 0.01 0.01 0.01 0.01 0.00 0.00 0.00 0.01 0.01 0.01 0.01 0.01 0.01 0.01 0.01 0.01 0.01 0.01
0.03 0.02 0.03 0.02 0.01 0.01 0.01 0.02 0.02 0.02 0.02 0.02 0.01 0.01 0.01 0.01 0.01 0.00 0.00 0.00 0.00 0.00 0.00 0.00 0.00 0.00 0.01 0.01 0.01 0.01 0.00 0.00 0.00 0.01 0.01 0.01 0.01 0.02 0.01 0.01 0.01 0.01 0.01 0.01
0.05 0.04 0.02 0.01 0.01 0.01 0.01 0.02 0.03 0.02 0.02 0.02 0.01 0.01 0.01 0.01 0.01 0.01 0.01 0.00 0.00 0.00 0.00 0.00 0.00 0.00 0.01 0.01 0.01 0.01 0.00 0.00 0.00 0.00 0.00 0.01 0.01 0.01 0.02 0.01 0.01 0.01 0.01 0.01
0.05 0.04 0.02 0.01 0.01 0.01 0.01 0.02 0.02 0.02 0.02 0.02 0.01 0.01 0.01 0.01 0.01 0.01 0.01 0.01 0.00 0.00 0.00 0.00 0.00 0.00 0.00 0.01 0.01 0.01 0.00 0.00 0.00 0.00 0.01 0.01 0.01 0.01 0.01 0.01 0.01 0.01 0.01 0.01
0.04 0.03 0.02 0.02 0.01 0.00 0.01 0.02 0.02 0.02 0.01 0.01 0.02 0.01 0.01 0.01 0.01 0.01 0.01 0.01 0.00 0.00 0.00 0.00 0.00 0.00 0.00 0.01 0.01 0.01 0.01 0.00 0.00 0.00 0.01 0.01 0.01 0.01 0.01 0.01 0.01 0.01 0.01 0.01
0.02 0.03 0.02 0.02 0.01 0.02 0.03 0.02 0.02 0.01 0.01 0.01 0.01 0.01 0.01 0.01 0.01 0.01 0.01 0.01 0.00 0.00 0.00 0.00 0.00 0.00 0.00 0.00 0.00 0.01 0.01 0.01 0.01 0.01 0.01 0.01 0.01 0.01 0.01 0.01 0.01 0.01 0.01 0.00
0.01 0.02 0.02 0.02 0.02 0.02 0.01 0.01 0.01 0.01 0.01 0.01 0.01 0.00 0.01 0.01 0.01 0.01 0.01 0.01 0.00 0.00 0.00 0.00 0.00 0.00 0.00 0.00 0.00 0.01 0.01 0.01 0.01 0.01 0.01 0.01 0.01 0.01 0.01 0.01 0.01 0.01 0.01 0.01
0.01 0.01 0.01 0.01 0.01 0.01 0.01 0.01 0.01 0.01 0.01 0.01 0.01 0.01 0.01 0.01 0.01 0.01 0.01 0.00 0.00 0.00 0.00 0.00 0.00 0.00 0.00 0.01 0.01 0.01 0.01 0.01 0.01 0.01 0.01 0.01 0.01 0.01 0.01 0.01 0.01 0.01 0.01 0.01
0.02 0.01 0.01 0.01 0.01 0.01 0.01 0.01 0.01 0.01 0.01 0.01 0.01 0.01 0.01 0.01 0.01 0.01 0.01 0.01 0.01 0.00 0.00 0.00 0.00 0.00 0.00 0.00 0.01 0.01 0.01 0.01 0.01 0.01 0.01 0.01 0.01 0.01 0.01 0.01 0.01 0.02 0.02 0.02
0.02 0.02 0.02 0.01 0.01 0.00 0.00 0.00 0.00 0.00 0.01 0.01 0.01 0.01 0.01 0.01 0.01 0.01 0.01 0.01 0.01 0.01 0.00 0.00 0.00 0.00 0.00 0.00 0.00 0.00 0.01 0.01 0.01 0.01 0.01 0.01 0.01 0.01 0.01 0.01 0.01 0.01 0.01 0.02
0.01 0.01 0.01 0.01 0.00 0.00 0.00 0.00 0.00 0.00 0.00 0.01 0.01 0.01 0.01 0.01 0.01 0.01 0.01 0.01 0.01 0.00 0.00 0.00 0.00 0.00 0.00 0.00 0.00 0.00 0.00 0.01 0.01 0.01 0.01 0.01 0.01 0.01 0.01 0.01 0.01 0.01 0.01 0.01
0.00 0.00 0.00 0.00 0.00 0.00 0.00 0.00 0.00 0.00 0.01 0.01 0.01 0.01 0.01 0.01 0.01 0.01 0.01 0.01 0.01 0.00 0.00 0.00 0.00 0.00 0.00 0.00 0.00 0.00 0.00 0.01 0.01 0.01 0.01 0.01 0.01 0.01 0.01 0.01 0.00 0.01 0.01 0.01
0.00 0.00 0.00 0.00 0.00 0.00 0.00 0.00 0.00 0.00 0.00 0.00 0.00 0.01 0.01 0.01 0.01 0.01 0.01 0.01 0.01 0.01 0.01 0.00 0.00 0.00 0.00 0.00 0.00 0.00 0.00 0.00 0.01 0.01 0.01 0.01 0.01 0.01 0.01 0.01 0.01 0.01 0.01 0.01
0.00 0.00 0.00 0.00 0.00 0.00 0.00 0.00 0.00 0.00 0.00 0.00 0.00 0.00 0.00 0.00 0.01 0.01 0.01 0.01 0.00 0.00 0.00 0.00 0.00 0.00 0.00 0.00 0.00 0.00 0.00 0.00 0.01 0.01 0.01 0.01 0.01 0.01 0.01 0.01 0.01 0.01 0.01 0.01
0.00 0.00 0.00 0.00 0.00 0.00 0.00 0.00 0.00 0.00 0.00 0.00 0.00 0.00 0.00 0.00 0.00 0.01 0.01 0.01 0.00 0.00 0.00 0.00 0.00 0.00 0.00 0.00 0.00 0.01 0.00 0.00 0.00 0.01 0.01 0.01 0.01 0.01 0.01 0.01 0.01 0.01 0.01 0.01
0.00 0.00 0.00 0.00 0.00 0.00 0.00 0.00 0.00 0.00 0.00 0.00 0.00 0.00 0.00 0.00 0.00 0.00 0.01 0.01 0.00 0.00 0.00 0.00 0.00 0.00 0.00 0.00 0.00 0.01 0.01 0.00 0.00 0.01 0.01 0.01 0.02 0.02 0.02 0.01 0.01 0.01 0.01 0.01
0.00 0.00 0.00 0.01 0.01 0.01 0.01 0.01 0.00 0.00 0.00 0.00 0.00 0.00 0.00 0.00 0.00 0.00 0.01 0.00 0.00 0.00 0.00 0.00 0.00 0.00 0.00 0.00 0.00 0.00 0.00 0.00 0.00 0.01 0.01 0.01 0.01 0.01 0.01 0.01 0.01 0.01 0.01 0.01
0.00 0.00 0.01 0.01 0.01 0.01 0.01 0.01 0.01 0.01 0.01 0.01 0.01 0.01 0.01 0.01 0.01 0.01 0.00 0.00 0.00 0.01 0.00 0.00 0.00 0.00 0.00 0.00 0.00 0.01 0.01 0.01 0.01 0.01 0.01 0.01 0.01 0.01 0.01 0.01 0.01 0.01 0.01 0.01
0.00 0.00 0.00 0.00 0.01 0.01 0.01 0.01 0.01 0.01 0.01 0.01 0.01 0.01 0.01 0.01 0.01 0.01 0.01 0.00 0.00 0.00 0.00 0.00 0.00 0.00 0.00 0.01 0.01 0.01 0.01 0.01 0.01 0.01 0.01 0.01 0.02 0.02 0.01 0.01 0.01 0.01 0.01 0.01
0.00 0.00 0.00 0.01 0.01 0.01 0.01 0.01 0.01 0.01 0.01 0.01 0.01 0.01 0.00 0.00 0.00 0.00 0.00 0.00 0.00 0.00 0.00 0.00 0.00 0.00 0.01 0.01 0.01 0.01 0.01 0.01 0.01 0.01 0.02 0.02 0.02 0.02 0.02 0.01 0.01 0.01 0.01 0.01
0.00 0.00 0.00 0.00 0.00 0.00 0.00 0.00 0.00 0.01 0.01 0.01 0.00 0.00 0.00 0.00 0.00 0.01 0.01 0.00 0.00 0.00 0.00 0.00 0.01 0.01 0.01 0.01 0.01 0.01 0.01 0.01 0.02 0.02 0.02 0.02 0.02 0.02 0.02 0.02 0.01 0.01 0.02 0.02
0.00 0.00 0.00 0.00 0.00 0.00 0.00 0.00 0.00 0.00 0.00 0.00 0.00 0.00 0.00 0.00 0.00 0.00 0.00 0.00 0.00 0.01 0.00 0.01 0.01 0.01 0.01 0.01 0.01 0.01 0.01 0.01 0.02 0.02 0.02 0.02 0.02 0.02 0.02 0.02 0.02 0.02 0.02 0.02
0.00 0.00 0.00 0.00 0.00 0.00 0.00 0.00 0.00 0.00 0.00 0.00 0.00 0.00 0.00 0.01 0.01 0.00 0.01 0.00 0.00 0.00 0.00 0.00 0.01 0.01 0.01 0.01 0.01 0.01 0.01 0.01 0.02 0.02 0.02 0.02 0.02 0.02 0.02 0.02 0.02 0.02 0.02 0.02
0.00 0.00 0.00 0.00 0.00 0.01 0.01 0.01 0.01 0.00 0.01 0.01 0.01 0.01 0.01 0.01 0.01 0.01 0.01 0.00 0.00 0.00 0.00 0.00 0.01 0.01 0.01 0.01 0.01 0.01 0.01 0.02 0.02 0.01 0.01 0.01 0.01 0.01 0.01 0.01 0.01 0.01 0.01 0.01
0.00 0.00 0.00 0.00 0.00 0.00 0.01 0.01 0.01 0.01 0.01 0.01 0.01 0.01 0.01 0.01 0.01 0.01 0.01 0.00 0.00 0.00 0.01 0.01 0.01 0.01 0.01 0.01 0.01 0.01 0.01 0.01 0.01 0.01 0.01 0.01 0.01 0.01 0.01 0.01 0.01 0.01 0.01 0.01
MSLP
1030.82 1031.01 1031.10 1031.06 1030.82 1030.36 1029.67 1028.78 1027.73 1026.59 1025.45 1024.37 1023.43 1022.66 1022.06 1021.62 1021.31 1021.06 1020.82 1020.56 1020.24 1019.86 1019.44 1019.00 1018.58 1018.22 1017.94 1017.76 1017.68 1017.68 1017.75 1017.87 1018.02 1018.18 1018.35 1018.53 1018.73 1018.97 1019.23 1019.52 1019.84 1020.19 1020.54 1020.90
1030.23 1030.30 1030.28 1030.13 1029.79 1029.27 1028.55 1027.67 1026.68 1025.64 1024.62 1023.68 1022.88 1022.22 1021.73 1021.36 1021.08 1020.84 1020.60 1020.32 1019.98 1019.59 1019.15 1018.71 1018.29 1017.92 1017.62 1017.42 1017.30 1017.25 1017.26 1017.31 1017.38 1017.48 1017.59 1017.73 1017.90 1018.10 1018.35 1018.63 1018.95 1019.29 1019.65 1020.02
1029.48 1029.37 1029.17 1028.87 1028.43 1027.85 1027.13 1026.30 1025.41 1024.50 1023.64 1022.86 1022.21 1021.69 1021.29 1020.98 1020.74 1020.50 1020.25 1019.95 1019.60 1019.19 1018.76 1018.32 1017.91 1017.55 1017.25 1017.02 1016.87 1016.77 1016.72 1016.70 1016.70 1016.73 1016.79 1016.88 1017.01 1017.19 1017.41 1017.69 1018.00 1018.33 1018.69 1019.05
1028.69 1028.34 1027.94 1027.47 1026.91 1026.27 1025.56 1024.79 1024.01 1023.26 1022.56 1021.95 1021.45 1021.05 1020.73 1020.48 1020.25 1020.02 1019.75 1019.44 1019.07 1018.66 1018.23 1017.81 1017.42 1017.07 1016.77 1016.54 1016.36 1016.22 1016.11 1016.03 1015.97 1015.94 1015.94 1015.98 1016.08 1016.24 1016.45 1016.71 1017.01 1017.34 1017.69 1018.05
1027.91 1027.32 1026.70 1026.06 1025.39 1024.70 1023.99 1023.29 1022.62 1022.00 1021.45 1020.98 1020.60 1020.30 1020.05 1019.83 1019.61 1019.37 1019.08 1018.75 1018.37 1017.96 1017.55 1017.14 1016.77 1016.44 1016.16 1015.92 1015.72 1015.55 1015.40 1015.27 1015.16 1015.08 1015.04 1015.05 1015.12 1015.26 1015.46 1015.71 1016.00 1016.32 1016.65 1017.01
1027.10 1026.30 1025.50 1024.72 1023.96 1023.23 1022.53 1021.88 1021.29 1020.78 1020.34 1019.98 1019.69 1019.45 1019.24 1019.03 1018.81 1018.54 1018.23 1017.88 1017.49 1017.09 1016.68 1016.29 1015.94 1015.63 1015.35 1015.11 1014.90 1014.71 1014.53 1014.37 1014.23 1014.13 1014.06 1014.06 1014.12 1014.25 1014.44 1014.68 1014.95 1015.26 1015.58 1015.91
1026.17 1025.24 1024.33 1023.46 1022.65 1021.90 1021.22 1020.61 1020.09 1019.64 1019.28 1018.98 1018.74 1018.53 1018.33 1018.12 1017.87 1017.58 1017.25 1016.87 1016.46 1016.05 1015.64 1015.26 1014.92 1014.61 1014.33 1014.09 1013.88 1013.68 1013.49 1013.32 1013.17 1013.06 1013.00 1013.00 1013.06 1013.18 1013.37 1013.59 1013.85 1014.13 1014.43 1014.74
1025.05 1024.08 1023.14 1022.25 1021.44 1020.71 1020.05 1019.49 1019.01 1018.61 1018.29 1018.02 1017.80 1017.59 1017.38 1017.14 1016.87 1016.55 1016.18 1015.77 1015.34 1014.90 1014.48 1014.08 1013.72 1013.39 1013.11 1012.86 1012.63 1012.43 1012.25 1012.09 1011.97 1011.88 1011.84 1011.85 1011.93 1012.05 1012.23 1012.44 1012.68 1012.93 1013.19 1013.47
1023.70 1022.77 1021.88 1021.05 1020.30 1019.62 1019.02 1018.50 1018.06 1017.69 1017.38 1017.13 1016.90 1016.68 1016.45 1016.18 1015.88 1015.52 1015.12 1014.67 1014.20 1013.72 1013.25 1012.81 1012.40 1012.03 1011.71 1011.44 1011.21 1011.01 1010.84 1010.72 1010.63 1010.58 1010.58 1010.63 1010.73 1010.87 1011.03 1011.22 1011.43 1011.65 1011.87 1012.11
1022.12 1021.31 1020.54 1019.83 1019.18 1018.59 1018.07 1017.61 1017.21 1016.86 1016.57 1016.32 1016.08 1015.85 1015.60 1015.31 1014.98 1014.59 1014.15 1013.65 1013.12 1012.58 1012.03 1011.51 1011.02 1010.59 1010.21 1009.89 1009.64 1009.45 1009.30 1009.22 1009.19 1009.20 1009.26 1009.35 1009.48 1009.63 1009.80 1009.97 1010.14 1010.31 1010.49 1010.70
1020.41 1019.76 1019.15 1018.59 1018.07 1017.60 1017.17 1016.78 1016.43 1016.12 1015.85 1015.60 1015.37 1015.13 1014.88 1014.58 1014.23 1013.82 1013.33 1012.78 1012.18 1011.54 1010.90 1010.27 1009.67 1009.14 1008.68 1008.30 1008.01 1007.81 1007.70 1007.66 1007.69 1007.77 1007.90 1008.05 1008.22 1008.39 1008.56 1008.70 1008.84 1008.98 1009.12 1009.29
1018.70 1018.21 1017.77 1017.37 1016.99 1016.64 1016.31 1016.00 1015.71 1015.44 1015.20 1014.98 1014.77 1014.55 1014.31 1014.02 1013.67 1013.24 1012.71 1012.10 1011.42 1010.68 1009.91 1009.14 1008.42 1007.76 1007.19 1006.74 1006.41 1006.20 1006.11 1006.12 1006.21 1006.37 1006.57 1006.78 1007.00 1007.19 1007.36 1007.50 1007.61 1007.72 1007.82 1007.97
1017.11 1016.76 1016.46 1016.21 1015.97 1015.73 1015.50 1015.26 1015.04 1014.82 1014.62 1014.44 1014.27 1014.08 1013.87 1013.61 1013.27 1012.82 1012.27 1011.60 1010.83 1009.98 1009.08 1008.18 1007.31 1006.52 1005.85 1005.31 1004.92 1004.69 1004.62 1004.66 1004.82 1005.04 1005.31 1005.58 1005.84 1006.06 1006.25 1006.38 1006.48 1006.57 1006.66 1006.78
1015.73 1015.48 1015.30 1015.16 1015.03 1014.89 1014.74 1014.58 1014.41 1014.25 1014.10 1013.96 1013.84 1013.70 1013.53 1013.30 1012.98 1012.54 1011.97 1011.25 1010.40 1009.45 1008.44 1007.41 1006.41 1005.49 1004.70 1004.07 1003.63 1003.37 1003.29 1003.37 1003.56 1003.83 1004.15 1004.47 1004.77 1005.02 1005.22 1005.37 1005.47 1005.55 1005.64 1005.76
1014.60 1014.42 1014.32 1014.26 1014.21 1014.14 1014.05 1013.95 1013.83 1013.72 1013.62 1013.53 1013.45 1013.37 1013.24 1013.05 1012.76 1012.33 1011.75 1011.00 1010.10 1009.07 1007.97 1006.83 1005.72 1004.69 1003.81 1003.10 1002.60 1002.30 1002.20 1002.27 1002.48 1002.77 1003.12 1003.46 1003.78 1004.05 1004.26 1004.42 1004.54 1004.63 1004.73 1004.87
1013.69 1013.56 1013.51 1013.51 1013.51 1013.50 1013.46 1013.39 1013.32 1013.24 1013.17 1013.12 1013.08 1013.04 1012.96 1012.80 1012.54 1012.13 1011.56 1010.81 1009.88 1008.81 1007.65 1006.45 1005.26 1004.16 1003.20 1002.43 1001.86 1001.52 1001.38 1001.41 1001.60 1001.87 1002.20 1002.54 1002.85 1003.12 1003.33 1003.50 1003.63 1003.75 1003.88 1004.04
1012.95 1012.86 1012.85 1012.89 1012.94 1012.96 1012.95 1012.91 1012.86 1012.80 1012.75 1012.72 1012.71 1012.69 1012.64 1012.52 1012.29 1011.91 1011.36 1010.63 1009.71 1008.65 1007.48 1006.25 1005.04 1003.90 1002.90 1002.07 1001.45 1001.04 1000.84 1000.81 1000.92 1001.13 1001.40 1001.68 1001.95 1002.18 1002.38 1002.54 1002.69 1002.82 1002.98 1003.18
1012.29 1012.25 1012.30 1012.39 1012.47 1012.52 1012.53 1012.50 1012.45 1012.39 1012.35 1012.32 1012.32 1012.31 1012.27 1012.18 1011.98 1011.64 1011.13 1010.45 1009.58 1008.56 1007.43 1006.23 1005.04 1003.90 1002.88 1002.02 1001.35 1000.87 1000.57 1000.44 1000.45 1000.55 1000.70 1000.88 1001.06 1001.23 1001.38 1001.52 1001.66 1001.81 1002.00 1002.24
1011.67 1011.70 1011.81 1011.95 1012.07 1012.14 1012.16 1012.14 1012.08 1012.01 1011.95 1011.91 1011.89 1011.88 1011.85 1011.77 1011.60 1011.31 1010.86 1010.25 1009.46 1008.52 1007.48 1006.36 1005.22 1004.13 1003.13 1002.25 1001.53 1000.97 1000.57 1000.32 1000.18 1000.12 1000.13 1000.17 1000.22 1000.28 1000.35 1000.44 1000.55 1000.71 1000.91 1001.18
1011.06 1011.19 1011.37 1011.56 1011.71 1011.81 1011.83 1011.80 1011.73 1011.64 1011.56 1011.49 1011.45 1011.42 1011.39 1011.32 1011.17 1010.93 1010.55 1010.02 1009.34 1008.52 1007.59 1006.58 1005.55 1004.53 1003.56 1002.69 1001.94 1001.31 1000.80 1000.41 1000.11 999.88 999.71 999.57 999.47 999.41 999.37 999.38 999.45 999.58 999.79 1000.06
1010.49 1010.71 1010.97 1011.21 1011.39 1011.50 1011.52 1011.48 1011.39 1011.27 1011.16 1011.06 1010.99 1010.94 1010.89 1010.83 1010.72 1010.52 1010.22 1009.79 1009.22 1008.53 1007.73 1006.86 1005.94 1005.01 1004.12 1003.27 1002.50 1001.81 1001.21 1000.69 1000.23 999.83 999.48 999.18 998.92 998.70 998.55 998.47 998.47 998.56 998.74 999.01
1009.99 1010.30 1010.61 1010.89 1011.08 1011.19 1011.21 1011.15 1011.04 1010.89 1010.75 1010.63 1010.53 1010.46 1010.41 1010.35 1010.26 1010.11 1009.88 1009.54 1009.09 1008.53 1007.87 1007.13 1006.34 1005.52 1004.70 1003.91 1003.14 1002.42 1001.75 1001.13 1000.54 1000.00 999.50 999.04 998.63 998.29 998.02 997.85 997.77 997.80 997.93 998.17
1009.62 1009.98 1010.32 1010.60 1010.79 1010.88 1010.88 1010.81 1010.67 1010.51 1010.35 1010.20 1010.09 1010.01 1009.95 1009.90 1009.83 1009.72 1009.54 1009.29 1008.93 1008.49 1007.96 1007.35 1006.68 1005.98 1005.25 1004.52 1003.79 1003.07 1002.37 1001.69 1001.03 1000.39 999.78 999.21 998.70 998.25 997.88 997.61 997.46 997.42 997.49 997.68
1009.39 1009.76 1010.09 1010.34 1010.50 1010.57 1010.54 1010.44 1010.30 1010.13 1009.96 1009.81 1009.69 1009.61 1009.55 1009.50 1009.45 1009.36 1009.23 1009.03 1008.75 1008.40 1007.97 1007.47 1006.92 1006.32 1005.69 1005.03 1004.37 1003.69 1003.01 1002.33 1001.65 1000.98 1000.32 999.69 999.11 998.60 998.17 997.83 997.60 997.49 997.50 997.61
1009.29 1009.62 1009.90 1010.10 1010.21 1010.24 1010.18 1010.07 1009.92 1009.75 1009.59 1009.45 1009.35 1009.27 1009.21 1009.17 1009.12 1009.05 1008.93 1008.77 1008.53 1008.24 1007.88 1007.46 1007.00 1006.50 1005.96 1005.40 1004.82 1004.22 1003.60 1002.97 1002.33 1001.68 1001.04 1000.41 999.82 999.29 998.82 998.45 998.16 997.99 997.92 997.96
1009.27 1009.54 1009.73 1009.86 1009.91 1009.89 1009.81 1009.69 1009.54 1009.40 1009.26 1009.15 1009.06 1009.00 1008.95 1008.91 1008.85 1008.77 1008.65 1008.49 1008.27 1008.00 1007.68 1007.31 1006.92 1006.49 1006.04 1005.57 1005.09 1004.59 1004.06 1003.53 1002.97 1002.40 1001.82 1001.25 1000.70 1000.18 999.72 999.32 999.01 998.78 998.65 998.60
1009.28 1009.44 1009.55 1009.59 1009.57 1009.51 1009.41 1009.30 1009.17 1009.06 1008.96 1008.88 1008.82 1008.78 1008.73 1008.68 1008.61 1008.51 1008.36 1008.17 1007.94 1007.66 1007.35 1007.02 1006.66 1006.29 1005.92 1005.53 1005.15 1004.75 1004.34 1003.91 1003.47 1003.00 1002.52 1002.03 1001.55 1001.08 1000.65 1000.26 999.92 999.66 999.47 999.35
Thickness
5429 5434 5434 5436 5436 5430 5432 5437 5440 5451 5452 5466 5463 5460 5459 5457 5456 5455 5455 5454 5453 5451 5450 5449 5449 5449 5449 5450 5450 5451 5450 5450 5450 5449 5449 5447 5446 5444 5442 5441 5439 5438 5436 5435
5420 5424 5422 5425 5431 5430 5431 5433 5433 5438 5446 5455 5452 5448 5446 5446 5445 5446 5445 5445 5443 5442 5441 5440 5439 5439 5439 5440 5440 5440 5440 5439 5439 5438 5438 5436 5435 5433 5431 5430 5428 5427 5426 5425
5413 5411 5416 5422 5431 5429 5428 5428 5430 5436 5448 5444 5441 5441 5439 5437 5436 5436 5436 5434 5433 5432 5431 5430 5429 5429 5429 5429 5429 5428 5428 5428 5428 5427 5426 5426 5424 5423 5421 5419 5418 5416 5415 5414
5397 5402 5412 5436 5431 5430 5427 5426 5425 5432 5435 5434 5433 5430 5427 5425 5424 5425 5425 5423 5422 5420 5420 5419 5418 5418 5418 5419 5418 5418 5417 5417 5417 5416 5415 5414 5413 5412 5410 5409 5407 5406 5406 5405
5386 5391 5404 5422 5421 5417 5418 5422 5424 5423 5424 5422 5419 5418 5419 5419 5416 5415 5413 5411 5409 5409 5408 5408 5408 5408 5407 5407 5407 5407 5407 5406 5406 5405 5404 5403 5402 5401 5400 5398 5397 5396 5396 5395
5374 5387 5400 5421 5416 5411 5413 5414 5419 5414 5413 5410 5408 5408 5413 5411 5406 5403 5401 5400 5398 5397 5396 5397 5397 5397 5396 5396 5396 5396 5397 5396 5395 5394 5393 5392 5391 5391 5390 5388 5387 5387 5386 5385
5370 5376 5392 5404 5402 5404 5405 5412 5410 5404 5403 5399 5398 5401 5400 5397 5394 5392 5390 5389 5388 5386 5385 5386 5386 5386 5385 5385 5385 5386 5387 5386 5385 5384 5383 5382 5381 5380 5379 5378 5377 5376 5375 5375
5362 5370 5389 5394 5390 5394 5399 5398 5396 5393 5391 5389 5388 5387 5385 5384 5382 5380 5379 5378 5377 5376 5375 5375 5375 5374 5374 5374 5376 5376 5376 5376 5375 5375 5374 5373 5371 5370 5369 5368 5366 5365 5365 5365
5374 5387 5387 5382 5385 5386 5385 5385 5385 5382 5381 5379 5377 5375 5374 5372 5370 5368 5367 5367 5366 5365 5364 5365 5364 5364 5364 5365 5366 5366 5366 5365 5365 5365 5364 5363 5362 5361 5359 5358 5357 5357 5356 5356
5361 5371 5374 5373 5374 5375 5375 5376 5375 5373 5372 5369 5367 5365 5363 5361 5359 5357 5357 5356 5355 5354 5354 5354 5354 5354 5355 5356 5356 5356 5355 5355 5355 5355 5355 5354 5353 5353 5351 5350 5349 5349 5349 5348
5355 5363 5365 5369 5367 5367 5366 5365 5364 5363 5362 5360 5358 5355 5353 5351 5349 5348 5348 5346 5345 5344 5344 5344 5344 5345 5346 5346 5346 5346 5346 5346 5346 5346 5346 5345 5345 5345 5344 5344 5343 5343 5343 5342
5361 5362 5359 5363 5362 5359 5357 5356 5355 5355 5353 5351 5349 5347 5344 5342 5341 5339 5338 5337 5336 5335 5335 5335 5335 5335 5336 5336 5336 5336 5337 5337 5337 5337 5337 5336 5336 5336 5337 5337 5337 5337 5337 5336
5352 5351 5349 5352 5352 5350 5348 5348 5347 5346 5345 5343 5340 5338 5336 5334 5333 5330 5329 5328 5327 5327 5326 5326 5326 5327 5327 5327 5327 5327 5327 5328 5328 5328 5328 5328 5327 5327 5328 5328 5329 5329 5329 5329
5340 5339 5340 5342 5341 5340 5339 5338 5337 5336 5335 5333 5331 5329 5327 5325 5324 5322 5321 5321 5320 5319 5318 5318 5318 5319 5319 5319 5319 5319 5319 5320 5320 5320 5319 5319 5319 5319 5319 5319 5319 5319 5320 5321
5331 5331 5332 5332 5331 5330 5329 5328 5326 5326 5325 5324 5322 5321 5319 5317 5316 5315 5314 5313 5312 5310 5310 5310 5310 5311 5311 5311 5311 5311 5311 5312 5312 5312 5312 5311 5311 5311 5311 5311 5311 5311 5312 5313
5323 5323 5322 5322 5322 5322 5320 5319 5317 5318 5317 5315 5314 5312 5311 5309 5308 5307 5306 5304 5303 5303 5303 5302 5303 5304 5304 5303 5303 5303 5303 5305 5305 5304 5304 5304 5303 5303 5304 5304 5304 5304 5304 5305
5315 5315 5314 5313 5314 5313 5312 5311 5311 5310 5309 5307 5306 5304 5302 5300 5299 5298 5298 5296 5295 5295 5295 5295 5296 5297 5296 5296 5295 5296 5296 5297 5298 5297 5296 5296 5296 5296 5297 5297 5297 5297 5297 5298
5311 5311 5309 5308 5307 5306 5306 5305 5304 5302 5301 5300 5298 5295 5293 5292 5291 5290 5290 5288 5287 5287 5288 5288 5289 5289 5289 5289 5289 5289 5289 5289 5289 5289 5289 5289 5289 5289 5290 5290 5290 5290 5290 5291
5303 5302 5301 5301 5299 5298 5297 5297 5296 5294 5293 5291 5289 5287 5285 5284 5283 5282 5282 5281 5280 5281 5282 5281 5282 5282 5282 5283 5283 5282 5282 5282 5282 5282 5282 5283 5283 5282 5282 5283 5283 5283 5284 5284
5294 5294 5292 5291 5290 5288 5288 5287 5286 5284 5283 5282 5280 5279 5277 5277 5276 5275 5274 5274 5275 5276 5276 5276 5276 5276 5276 5277 5278 5277 5277 5276 5276 5276 5276 5275 5275 5275 5276 5276 5277 5277 5277 5277
5286 5285 5283 5282 5280 5279 5278 5277 5276 5275 5275 5273 5272 5272 5271 5270 5269 5267 5267 5269 5271 5270 5270 5271 5270 5271 5271 5272 5273 5271 5271 5271 5271 5270 5270 5270 5270 5270 5270 5270 5271 5271 5271 5271
5277 5276 5275 5273 5271 5270 5269 5268 5267 5267 5266 5265 5265 5264 5263 5262 5262 5261 5262 5263 5265 5266 5265 5265 5265 5266 5267 5267 5266 5266 5265 5265 5265 5265 5265 5265 5265 5265 5265 5265 5265 5265 5265 5265
5269 5267 5266 5264 5263 5261 5260 5260 5259 5259 5258 5257 5257 5257 5256 5257 5256 5256 5258 5259 5259 5261 5261 5260 5261 5263 5263 5261 5260 5260 5260 5260 5260 5261 5261 5261 5261 5261 5261 5261 5261 5261 5261 5260
5261 5259 5257 5255 5253 5252 5253 5254 5252 5252 5251 5251 5251 5250 5250 5250 5251 5252 5252 5254 5255 5256 5256 5257 5258 5259 5259 5256 5255 5255 5255 5256 5256 5256 5257 5257 5258 5258 5258 5258 5257 5257 5257 5256
5253 5251 5249 5247 5247 5248 5248 5247 5246 5246 5245 5245 5245 5245 5245 5245 5245 5247 5247 5248 5250 5251 5251 5252 5254 5254 5253 5252 5251 5251 5252 5252 5253 5253 5254 5254 5255 5255 5254 5254 5254 5254 5254 5253
5246 5244 5243 5242 5241 5241 5241 5240 5240 5240 5239 5239 5240 5240 5240 5240 5240 5241 5241 5243 5244 5245 5246 5247 5247 5248 5248 5248 5248 5248 5249 5250 5250 5251 5251 5251 5251 5251 5251 5251 5251 5251 5251 5250
5239 5238 5237 5237 5237 5235 5234 5233 5233 5233 5233 5233 5233 5234 5233 5234 5234 5235 5236 5237 5238 5240 5241 5242 5242 5243 5243 5244 5244 5245 5245 5246 5247 5248 5248 5248 5248 5248 5248 5248 5248 5248 5248 5248